Weather in Ogorodtakh

Russia / Sakha (Yakutia) Republic     62°27′17″N   130°08′58″E
temp.,
°C
wind,
m/s
gust,
m/s
humid.,
%
clouds,
%
prec.,
mm/h
press.,
hPa
HPBL,
m
28 september, tue
tue2800:00+2ne31279100 0.0 1012349
03:00+2ne41471100 0.0 1010443
06:000ne312722 0.0 1009391
09:00+4ne412540 0.0 1008523
12:00+8ne58380 0.0 10061001
15:00+9ne47380 0.0 10061199
18:00+5nne23565 0.0 100753
21:00+2ne24650 0.0 100963
29 september, wed
wed2900:000ne25690 0.0 101196
03:00−2nne22750 0.0 101240
06:00−2nne23730 0.0 101269
09:00+3ne27450 0.0 1013391
12:00+7ne58340 0.0 1011893
15:00+8ene57375 0.0 10101173
18:00+3ne375059 0.0 1010139
21:00+2ne41253100 0.0 1010296
30 september, thu
thu3000:00+3ene41244100 0.0 1009513
03:00+1ne41263100 0.4 1008529
06:00+2ene41296100 0.6 1008700
09:00+2ene41197100 1.0 1007604
12:00+3ene4997100 0.5 1006633
15:00+3ne3797100 1.1 1006621
18:00+3ene2598100 1.4 1005596
21:00+2ne3697100 1.7 1005492
1 october, fri
fri100:00+2nne2599100 0.5 1003262
03:00+2nne2599100 1.1 1002304
06:00+1nne3698100 1.4 1002240
09:00+1nne2599100 1.9 1001237
12:00+2n2499100 0.3 1001263
15:00+2n2499100 0.9 1001302
18:00+2nnw2598100 0.6 1001328
21:00+2nw3697100 0.8 1001380
2 october, sat
sat200:00+1wnw3697100 0.3 1001269
03:000wnw3797100 2.0 1002339
06:00−1w2697100 0.8 1004300
09:000w3490100 1.0 1005376
12:00+2wsw2381100 0.1 1006685
15:00+2sw2385100 0.1 1007419
18:00+1sw1396100 0.0 1009137
21:00+1wsw1198100 0.1 101075